Weather WX

World > North America > United States > Michigan

China Township, Michigan Regional Weather

Lat: 42.77N, Lon: 82.54W
Wx Zone: MIZ063
Warning FLW WEATHER ALERT - (More Info. Click Here) Warning
Feedback

China Township, MI Regional Weather

Expires:201906160200;;134566
ASUS43 KDTX 160101
RWRMI 
MICHIGAN HOURLY REGIONAL WEATHER ROUNDUP
NATIONAL WEATHER SERVICE DETROIT/PONTIAC MI
900 PM EDT SAT JUN 15 2019

NOTE: "FAIR" INDICATES FEW OR NO CLOUDS BELOW 12,000 FEET WITH NO
SIGNIFICANT WEATHER AND/OR OBSTRUCTION TO VISIBILITY.


MIZ047>049-052>055-059>063-066>070-074>076-081>083-160200-
SOUTHEAST LOWER MICHIGAN
  
CITY           SKY/WX    TMP DP  RH WIND       PRES   REMARKS
ADRIAN         CLOUDY    66  63  90 CALM      29.83S                  
ALMA           CLOUDY    63  58  86 NE7       29.85S                  
ANN ARBOR      CLOUDY    65  64  97 CALM      29.83F FOG              
BAD AXE        RAIN      53  49  86 CALM      29.88R                  
CARO           CLOUDY    57  54  88 NE5       29.86R                  
DETROIT CITY   CLOUDY    66  64  93 W3        29.83F                  
DETROIT        CLOUDY    66  63  90 SW5       29.83F FOG              
FLINT          CLOUDY    64  61  90 NE9       29.84S                  
GROSSE ILE     CLOUDY    65  64  96 CALM      29.82F FOG              
HILLSDALE      CLOUDY    65  63  94 CALM      29.82F                  
HOWELL         CLOUDY    65  61  87 CALM      29.83S                  

CITY           SKY/WX    TMP DP  RH WIND       PRES   REMARKS
JACKSON        CLOUDY    65  65 100 CALM      29.83F FOG              
LAMBERTVILLE   CLOUDY    66  65  98 SW3       29.83S                  
LANSING        LGT RAIN  64  63  96 NE3       29.83S VSB 1            
LAPEER         CLOUDY    56  55  97 E3        29.86S                  
MONROE         CLOUDY    66  66  97 SW3       29.82S                  
PONTIAC        DRIZZLE   65  64  97 SW3       29.82F FOG              
PORT HOPE        N/A     52  48  86 SE5       29.87R                  
PORT HURON     DRIZZLE   55  52  88 NE3       29.86F                  
TRI CITIES     CLOUDY    59  57  93 NE9       29.87S                  
MIDLAND        CLOUDY    59  55  85 NE7       29.86S                  
TROY           CLOUDY    66  63  90 SW3       29.85S                  
SAGINAW HB     CLOUDY    61  55  82 N8        29.86R                  
$$

SKY/WX - Weather  TMP - Temperature  DP - Dew Point  RH - Relative Humidity
WIND - Wind Direction/Speed PRES - Barometric Pressure VSB - Visibility
WCI - Wind Chill Index E13G22 Wind - East Wind 13 mph/Gusts of 22 mph